Weather in Karaichnoye

Russia / Belgorod Oblast     50°36′51″N   37°12′50″E
temp.,
°C
wind,
m/s
gust,
m/s
humid.,
%
clouds,
%
prec.,
mm/h
press.,
hPa
HPBL,
m
22 april, thu
thu2200:00+6ssw11905 0.1 101710
03:00+5sw34925 0.1 101864
06:00+5sw24915 0.0 101972
09:00+10sw35695 0.0 1020461
12:00+14sw46545 0.0 10201484
15:00+16sw454596 0.0 10192240
18:00+13wsw2566100 0.0 1019129
21:00+12s3365100 0.0 102059
23 april, fri
fri2300:00+11ssw3569100 0.0 102097
03:00+10s3471100 0.0 101966
06:00+9s378060 0.0 1019156
09:00+13ssw57665 0.0 1019628
12:00+15ssw78536 0.9 10171637
15:00+15sw6858100 0.9 10161831
18:00+14ssw51065100 0.4 1014769
21:00+11ssw61378100 1.7 10131031
24 april, sat
sat2400:00+8wsw5989100 0.5 1014615
03:00+5nw61094100 0.9 1014710
06:00+4wsw25915 0.1 1015339
09:00+8wsw577239 0.3 1014730
12:00+7w687146 1.3 10151206
15:00+10wsw794593 1.4 10132084
18:00+6w7116997 1.4 10151426
21:00+4w612705 1.5 1017657
25 april, sun
sun2500:00+2w512800 0.0 1018460
03:00+1wsw410833 0.0 1019304
06:00+1wsw39845 0.0 1020257
09:00+6wsw57625 0.0 1020845
12:00+9wsw6743100 0.0 10202451
15:00+10wsw683884 0.0 10182349
18:00+10sw57475 0.0 10181177
21:00+6s4106262 0.0 1018227
26 april, mon
mon2600:00+5s4106377 0.0 1018193
03:00+4ssw3769100 0.0 1017177
06:00+4wsw3681100 0.0 1016402
09:00+5wnw3378100 0.0 1016716
12:00+4wsw2288100 0.4 1016507
15:00+6sw3374100 1.6 1015717
18:00+7sw567186 0.3 1014949
21:00+5sw4981100 0.9 1014235